Location: Bougoura
(13.1861°N, 5.0773°W)
Time: 16:25:44
(UTC+00:00)

CSL-04 Debris - Pass Details

Date: 18 September 2020
Orbit: 827 x 847 km, 98.9° (Epoch: 24 October)

Event Time Altitude Azimuth Distance (km) Brightness Sun altitude
Rises 19:47:45 0° 172° (S) 3,371 7.2 -22.4°
Reaches altitude 10° 19:50:07 10° 174° (S) 2,435 6.5 -22.9°
Maximum altitude 19:55:29 69° 257° (WSW) 883 4.4 -24.2°
Drops below altitude 10° 20:00:50 10° 341° (NNW) 2,426 6.9 -25.5°
Sets 20:03:11 0° 344° (NNW) 3,358 7.6 -26.1°
